Time,TemperatureF,DewpointF,PressureIn,WindDirection,WindDirectionDegrees,WindSpeedMPH,WindSpeedGustMPH,Humidity,HourlyPrecipIn,Conditions,Clouds,dailyrainin,SoftwareType,DateUTC
2013-01-11 00:03:00,33.8,22.9,30.08,WSW,257,3.0,11.0,64,0.00,,---,0.00,VWS V14.01,2013-01-11 08:03:00,
2013-01-11 00:08:00,33.7,22.8,30.08,West,267,4.0,11.0,64,0.00,,---,0.00,VWS V14.01,2013-01-11 08:08:00,
2013-01-11 00:13:00,33.5,22.6,30.08,West,274,7.0,12.0,64,0.00,,---,0.00,VWS V14.01,2013-01-11 08:13:00,
2013-01-11 00:18:00,33.5,22.6,30.08,WNW,300,10.0,13.0,64,0.00,,---,0.00,VWS V14.01,2013-01-11 08:18:00,
2013-01-11 00:23:00,33.8,21.8,30.08,SW,236,5.0,13.0,61,0.00,,---,0.00,VWS V14.01,2013-01-11 08:23:00,
2013-01-11 00:28:00,33.9,21.9,30.08,WNW,302,11.0,14.0,61,0.00,,---,0.00,VWS V14.01,2013-01-11 08:28:00,
2013-01-11 00:33:00,33.8,21.8,30.08,West,277,9.0,15.0,61,0.00,,---,0.00,VWS V14.01,2013-01-11 08:33:00,
2013-01-11 00:38:00,33.9,21.9,30.08,WSW,257,10.0,15.0,61,0.00,,---,0.00,VWS V14.01,2013-01-11 08:38:00,
2013-01-11 00:43:00,33.8,21.4,30.08,SSW,200,4.0,15.0,60,0.00,,---,0.00,VWS V14.01,2013-01-11 08:43:00,
2013-01-11 00:48:00,33.8,21.4,30.08,SSW,207,4.0,15.0,60,0.00,,---,0.00,VWS V14.01,2013-01-11 08:48:00,
2013-01-11 00:53:00,33.4,21.0,30.08,NW,315,8.0,15.0,60,0.00,,---,0.00,VWS V14.01,2013-01-11 08:53:00,
2013-01-11 00:58:00,33.2,20.8,30.07,WNW,287,9.0,18.0,60,0.00,,---,0.00,VWS V14.01,2013-01-11 08:58:00,
2013-01-11 01:03:00,33.5,20.7,30.07,WNW,300,19.0,22.0,59,0.00,,---,0.00,VWS V14.01,2013-01-11 09:03:00,
2013-01-11 01:08:00,33.9,20.7,30.07,WNW,285,6.0,23.0,58,0.00,,---,0.00,VWS V14.01,2013-01-11 09:08:00,
2013-01-11 01:13:00,33.9,21.1,30.08,WSW,246,21.0,23.0,59,0.00,,---,0.00,VWS V14.01,2013-01-11 09:13:00,
2013-01-11 01:18:00,34.1,20.9,30.08,WSW,258,8.0,23.0,58,0.00,,---,0.00,VWS V14.01,2013-01-11 09:18:00,
2013-01-11 01:23:00,34.3,21.5,30.08,WNW,286,15.0,24.0,59,0.00,,---,0.00,VWS V14.01,2013-01-11 09:23:00,
2013-01-11 01:28:00,34.5,21.3,30.08,NW,309,7.0,24.0,58,0.00,,---,0.00,VWS V14.01,2013-01-11 09:28:00,
2013-01-11 01:33:00,34.5,21.7,30.09,WNW,286,16.0,24.0,59,0.00,,---,0.00,VWS V14.01,2013-01-11 09:33:00,
2013-01-11 01:38:00,34.4,21.2,30.09,WNW,287,15.0,24.0,58,0.00,,---,0.00,VWS V14.01,2013-01-11 09:38:00,
2013-01-11 01:43:00,34.6,21.4,30.09,West,267,16.0,27.0,58,0.00,,---,0.00,VWS V14.01,2013-01-11 09:43:00,
2013-01-11 01:49:00,34.7,20.6,30.09,WSW,253,21.0,29.0,56,0.00,,---,0.00,VWS V14.01,2013-01-11 09:49:00,
2013-01-11 01:54:00,34.6,21.0,30.10,WNW,285,19.0,29.0,57,0.00,,---,0.00,VWS V14.01,2013-01-11 09:54:00,
2013-01-11 01:59:00,34.4,21.2,30.10,WNW,302,17.0,29.0,58,0.00,,---,0.00,VWS V14.01,2013-01-11 09:59:00,
2013-01-11 02:04:00,34.3,21.1,30.10,WNW,284,16.0,22.0,58,0.00,,---,0.00,VWS V14.01,2013-01-11 10:04:00,
2013-01-11 02:09:00,34.3,20.7,30.10,WNW,287,7.0,22.0,57,0.00,,---,0.00,VWS V14.01,2013-01-11 10:09:00,
2013-01-11 02:14:00,34.5,20.4,30.11,WNW,290,11.0,22.0,56,0.00,,---,0.00,VWS V14.01,2013-01-11 10:14:00,
2013-01-11 02:19:00,34.4,20.8,30.11,WNW,285,9.0,22.0,57,0.00,,---,0.00,VWS V14.01,2013-01-11 10:19:00,
2013-01-11 02:24:00,34.2,21.0,30.12,West,272,6.0,22.0,58,0.00,,---,0.00,VWS V14.01,2013-01-11 10:24:00,
2013-01-11 02:29:00,33.9,21.1,30.12,WSW,250,7.0,22.0,59,0.00,,---,0.00,VWS V14.01,2013-01-11 10:29:00,
2013-01-11 02:34:00,33.5,21.1,30.13,WSW,240,6.0,22.0,60,0.00,,---,0.00,VWS V14.01,2013-01-11 10:34:00,
2013-01-11 02:39:00,33.4,21.4,30.13,West,276,3.0,22.0,61,0.00,,---,0.00,VWS V14.01,2013-01-11 10:39:00,
2013-01-11 02:44:00,33.5,21.5,30.14,WSW,257,3.0,22.0,61,0.00,,---,0.00,VWS V14.01,2013-01-11 10:44:00,
2013-01-11 02:49:00,33.6,21.6,30.14,West,280,3.0,22.0,61,0.00,,---,0.00,VWS V14.01,2013-01-11 10:49:00,
2013-01-11 02:54:00,33.7,21.3,30.14,SW,235,4.0,22.0,60,0.00,,---,0.00,VWS V14.01,2013-01-11 10:54:00,
2013-01-11 02:59:00,33.9,21.5,30.14,WNW,297,4.0,22.0,60,0.00,,---,0.00,VWS V14.01,2013-01-11 10:59:00,
2013-01-11 03:04:00,34.1,21.7,30.14,SW,229,3.0,6.0,60,0.00,,---,0.00,VWS V14.01,2013-01-11 11:04:00,
2013-01-11 03:09:00,34.4,21.6,30.14,SW,228,3.0,6.0,59,0.00,,---,0.00,VWS V14.01,2013-01-11 11:09:00,
2013-01-11 03:14:00,34.5,21.7,30.14,SW,222,1.0,7.0,59,0.00,,---,0.00,VWS V14.01,2013-01-11 11:14:00,
2013-01-11 03:19:00,34.5,22.1,30.14,SSW,207,2.0,7.0,60,0.00,,---,0.00,VWS V14.01,2013-01-11 11:19:00,
2013-01-11 03:24:00,34.3,21.9,30.14,SW,218,1.0,7.0,60,0.00,,---,0.00,VWS V14.01,2013-01-11 11:24:00,
2013-01-11 03:29:00,34.1,22.1,30.14,SW,221,0.0,7.0,61,0.00,,---,0.00,VWS V14.01,2013-01-11 11:29:00,
2013-01-11 03:34:00,34.1,22.1,30.14,SW,225,6.0,7.0,61,0.00,,---,0.00,VWS V14.01,2013-01-11 11:34:00,
2013-01-11 03:39:00,34.2,22.5,30.14,SW,218,6.0,8.0,62,0.00,,---,0.00,VWS V14.01,2013-01-11 11:39:00,
2013-01-11 03:44:00,34.3,22.6,30.14,SW,221,3.0,8.0,62,0.00,,---,0.00,VWS V14.01,2013-01-11 11:44:00,
2013-01-11 03:49:00,34.3,23.0,30.13,SW,224,2.0,8.0,63,0.00,,---,0.00,VWS V14.01,2013-01-11 11:49:00,
2013-01-11 03:54:00,34.2,23.3,30.13,SW,219,5.0,8.0,64,0.00,,---,0.00,VWS V14.01,2013-01-11 11:54:00,
2013-01-11 03:59:00,34.2,23.3,30.14,WSW,253,1.0,2.0,64,0.00,,---,0.00,VWS V14.01,2013-01-11 11:59:00,
2013-01-11 04:04:00,34.2,23.3,30.14,SW,228,4.0,7.0,64,0.00,,---,0.00,VWS V14.01,2013-01-11 12:04:00,
2013-01-11 04:09:00,34.3,23.4,30.14,WSW,243,4.0,8.0,64,0.00,,---,0.00,VWS V14.01,2013-01-11 12:09:00,
2013-01-11 04:14:00,34.4,23.5,30.14,SW,224,2.0,8.0,64,0.00,,---,0.00,VWS V14.01,2013-01-11 12:14:00,
2013-01-11 04:19:00,34.4,23.5,30.14,SSW,200,1.0,8.0,64,0.00,,---,0.00,VWS V14.01,2013-01-11 12:19:00,
2013-01-11 04:24:00,34.4,23.5,30.14,WSW,245,2.0,8.0,64,0.00,,---,0.00,VWS V14.01,2013-01-11 12:24:00,
2013-01-11 04:30:00,34.5,23.2,30.14,SSW,198,4.0,9.0,63,0.00,,---,0.00,VWS V14.01,2013-01-11 12:30:00,
2013-01-11 04:35:00,34.5,23.2,30.14,SW,224,3.0,9.0,63,0.00,,---,0.00,VWS V14.01,2013-01-11 12:35:00,
2013-01-11 04:40:00,34.5,23.2,30.14,WSW,256,1.0,9.0,63,0.00,,---,0.00,VWS V14.01,2013-01-11 12:40:00,
2013-01-11 04:45:00,34.5,22.8,30.15,West,270,5.0,9.0,62,0.00,,---,0.00,VWS V14.01,2013-01-11 12:45:00,
2013-01-11 04:50:00,34.6,22.9,30.15,WSW,256,7.0,9.0,62,0.00,,---,0.00,VWS V14.01,2013-01-11 12:50:00,
2013-01-11 04:55:00,34.5,22.8,30.15,WSW,240,4.0,9.0,62,0.00,,---,0.00,VWS V14.01,2013-01-11 12:55:00,
2013-01-11 05:00:00,34.5,22.8,30.15,WSW,248,6.0,6.0,62,0.00,,---,0.00,VWS V14.01,2013-01-11 13:00:00,
2013-01-11 05:05:00,34.4,22.7,30.15,WSW,246,6.0,7.0,62,0.00,,---,0.00,VWS V14.01,2013-01-11 13:05:00,
2013-01-11 05:10:00,34.3,22.6,30.15,WSW,246,4.0,8.0,62,0.00,,---,0.00,VWS V14.01,2013-01-11 13:10:00,
2013-01-11 05:15:00,34.2,22.9,30.15,West,260,5.0,8.0,63,0.00,,---,0.00,VWS V14.01,2013-01-11 13:15:00,
2013-01-11 05:20:00,34.1,22.8,30.15,SW,225,4.0,8.0,63,0.00,,---,0.00,VWS V14.01,2013-01-11 13:20:00,
2013-01-11 05:25:00,33.9,22.6,30.16,WSW,257,3.0,8.0,63,0.00,,---,0.00,VWS V14.01,2013-01-11 13:25:00,
2013-01-11 05:30:00,33.8,22.9,30.16,WSW,255,4.0,8.0,64,0.00,,---,0.00,VWS V14.01,2013-01-11 13:30:00,
2013-01-11 05:35:00,33.9,23.0,30.16,WSW,252,3.0,9.0,64,0.00,,---,0.00,VWS V14.01,2013-01-11 13:35:00,
2013-01-11 05:40:00,33.9,23.0,30.16,WSW,246,3.0,11.0,64,0.00,,---,0.00,VWS V14.01,2013-01-11 13:40:00,
2013-01-11 05:45:00,33.9,23.0,30.16,WSW,250,4.0,11.0,64,0.00,,---,0.00,VWS V14.01,2013-01-11 13:45:00,
2013-01-11 05:50:00,33.9,23.0,30.16,West,259,4.0,11.0,64,0.00,,---,0.00,VWS V14.01,2013-01-11 13:50:00,
2013-01-11 05:55:00,33.8,22.9,30.17,WSW,241,4.0,11.0,64,0.00,,---,0.00,VWS V14.01,2013-01-11 13:55:00,
2013-01-11 06:00:00,33.9,22.6,30.17,West,267,6.0,7.0,63,0.00,,---,0.00,VWS V14.01,2013-01-11 14:00:00,
2013-01-11 06:05:00,33.9,22.6,30.17,WSW,253,5.0,7.0,63,0.00,,---,0.00,VWS V14.01,2013-01-11 14:05:00,
2013-01-11 06:10:00,33.8,22.5,30.17,WSW,257,2.0,7.0,63,0.00,,---,0.00,VWS V14.01,2013-01-11 14:10:00,
2013-01-11 06:15:00,33.6,22.7,30.17,WSW,257,3.0,8.0,64,0.00,,---,0.00,VWS V14.01,2013-01-11 14:15:00,
2013-01-11 06:20:00,33.6,22.7,30.17,WSW,245,1.0,10.0,64,0.00,,---,0.00,VWS V14.01,2013-01-11 14:20:00,
2013-01-11 06:25:00,33.7,22.8,30.17,West,259,8.0,10.0,64,0.00,,---,0.00,VWS V14.01,2013-01-11 14:25:00,
2013-01-11 06:30:00,33.8,22.9,30.17,WNW,299,3.0,10.0,64,0.00,,---,0.00,VWS V14.01,2013-01-11 14:30:00,
2013-01-11 06:35:00,33.8,22.9,30.17,West,277,6.0,10.0,64,0.00,,---,0.00,VWS V14.01,2013-01-11 14:35:00,
2013-01-11 06:40:00,33.7,22.8,30.17,West,267,4.0,10.0,64,0.00,,---,0.00,VWS V14.01,2013-01-11 14:40:00,
2013-01-11 06:45:00,33.7,22.8,30.17,WSW,250,3.0,10.0,64,0.00,,---,0.00,VWS V14.01,2013-01-11 14:45:00,
2013-01-11 06:50:00,33.8,22.9,30.17,SW,231,5.0,10.0,64,0.00,,---,0.00,VWS V14.01,2013-01-11 14:50:00,
2013-01-11 06:55:00,33.9,23.0,30.17,SW,231,4.0,10.0,64,0.00,,---,0.00,VWS V14.01,2013-01-11 14:55:00,
2013-01-11 07:00:00,33.9,23.0,30.17,WNW,290,3.0,7.0,64,0.00,,---,0.00,VWS V14.01,2013-01-11 15:00:00,
2013-01-11 07:05:00,33.9,23.0,30.17,West,274,3.0,7.0,64,0.00,,---,0.00,VWS V14.01,2013-01-11 15:05:00,
2013-01-11 07:10:00,34.0,23.1,30.18,WSW,256,6.0,8.0,64,0.00,,---,0.00,VWS V14.01,2013-01-11 15:10:00,
2013-01-11 07:15:00,34.2,23.3,30.18,WNW,302,4.0,8.0,64,0.00,,---,0.00,VWS V14.01,2013-01-11 15:15:00,
2013-01-11 07:20:00,34.4,23.1,30.18,WSW,257,2.0,10.0,63,0.00,,---,0.00,VWS V14.01,2013-01-11 15:20:00,
2013-01-11 07:25:00,34.6,23.3,30.18,WSW,240,5.0,10.0,63,0.00,,---,0.00,VWS V14.01,2013-01-11 15:25:00,
2013-01-11 07:30:00,34.8,23.1,30.18,WSW,248,5.0,10.0,62,0.00,,---,0.00,VWS V14.01,2013-01-11 15:30:00,
2013-01-11 07:35:00,35.0,23.3,30.18,WSW,249,2.0,10.0,62,0.00,,---,0.00,VWS V14.01,2013-01-11 15:35:00,
2013-01-11 07:40:00,35.3,23.2,30.18,SW,227,0.0,10.0,61,0.00,,---,0.00,VWS V14.01,2013-01-11 15:40:00,
2013-01-11 07:45:00,35.4,23.3,30.18,WSW,255,8.0,10.0,61,0.00,,---,0.00,VWS V14.01,2013-01-11 15:45:00,
2013-01-11 07:50:00,35.6,23.5,30.18,West,269,4.0,10.0,61,0.00,,---,0.00,VWS V14.01,2013-01-11 15:50:00,
2013-01-11 07:55:00,35.7,23.2,30.18,WSW,256,4.0,10.0,60,0.00,,---,0.00,VWS V14.01,2013-01-11 15:55:00,
2013-01-11 08:00:00,36.0,23.5,30.19,West,281,4.0,10.0,60,0.00,,---,0.00,VWS V14.01,2013-01-11 16:00:00,
2013-01-11 08:05:00,36.3,23.8,30.18,West,271,8.0,10.0,60,0.00,,---,0.00,VWS V14.01,2013-01-11 16:05:00,
2013-01-11 08:10:00,36.5,23.5,30.19,SW,226,4.0,12.0,59,0.00,,---,0.00,VWS V14.01,2013-01-11 16:10:00,
2013-01-11 08:15:00,36.7,23.7,30.19,West,281,6.0,12.0,59,0.00,,---,0.00,VWS V14.01,2013-01-11 16:15:00,
2013-01-11 08:20:00,36.8,23.8,30.19,WSW,248,12.0,12.0,59,0.00,,---,0.00,VWS V14.01,2013-01-11 16:20:00,
2013-01-11 08:25:00,36.8,23.8,30.19,WNW,290,5.0,12.0,59,0.00,,---,0.00,VWS V14.01,2013-01-11 16:25:00,
2013-01-11 08:30:00,36.9,23.9,30.19,West,260,4.0,12.0,59,0.00,,---,0.00,VWS V14.01,2013-01-11 16:30:00,
2013-01-11 08:35:00,37.0,23.6,30.20,WNW,291,3.0,12.0,58,0.00,,---,0.00,VWS V14.01,2013-01-11 16:35:00,
2013-01-11 08:40:00,36.9,23.5,30.19,West,281,9.0,12.0,58,0.00,,---,0.00,VWS V14.01,2013-01-11 16:40:00,
2013-01-11 08:45:00,36.8,23.4,30.19,NW,313,5.0,12.0,58,0.00,,---,0.00,VWS V14.01,2013-01-11 16:45:00,
2013-01-11 08:50:00,36.9,23.5,30.19,West,281,7.0,13.0,58,0.00,,---,0.00,VWS V14.01,2013-01-11 16:50:00,
2013-01-11 08:55:00,37.1,23.7,30.20,WNW,297,5.0,13.0,58,0.00,,---,0.00,VWS V14.01,2013-01-11 16:55:00,
2013-01-11 09:00:00,37.2,23.4,30.20,West,274,10.0,11.0,57,0.00,,---,0.00,VWS V14.01,2013-01-11 17:00:00,
2013-01-11 09:05:00,37.3,23.5,30.20,West,271,11.0,14.0,57,0.00,,---,0.00,VWS V14.01,2013-01-11 17:05:00,
2013-01-11 09:10:00,37.5,23.7,30.20,NW,309,8.0,14.0,57,0.00,,---,0.00,VWS V14.01,2013-01-11 17:10:00,
2013-01-11 09:15:00,37.4,23.1,30.20,West,263,9.0,14.0,56,0.00,,---,0.00,VWS V14.01,2013-01-11 17:15:00,
2013-01-11 09:20:00,37.2,23.0,30.20,WNW,284,8.0,14.0,56,0.00,,---,0.00,VWS V14.01,2013-01-11 17:20:00,
2013-01-11 09:25:00,37.2,23.4,30.20,WSW,243,9.0,14.0,57,0.00,,---,0.00,VWS V14.01,2013-01-11 17:25:00,
2013-01-11 09:30:00,37.4,23.6,30.19,NW,312,7.0,14.0,57,0.00,,---,0.00,VWS V14.01,2013-01-11 17:30:00,
2013-01-11 09:35:00,37.7,23.4,30.19,NW,304,11.0,14.0,56,0.00,,---,0.00,VWS V14.01,2013-01-11 17:35:00,
2013-01-11 09:41:00,37.8,23.5,30.19,WNW,285,10.0,14.0,56,0.00,,---,0.00,VWS V14.01,2013-01-11 17:41:00,
2013-01-11 09:46:00,37.9,23.2,30.20,WNW,297,8.0,14.0,55,0.00,,---,0.00,VWS V14.01,2013-01-11 17:46:00,
2013-01-11 09:51:00,38.1,22.9,30.19,NW,305,12.0,15.0,54,0.00,,---,0.00,VWS V14.01,2013-01-11 17:51:00,
2013-01-11 09:56:00,38.2,23.0,30.19,WNW,290,9.0,15.0,54,0.00,,---,0.00,VWS V14.01,2013-01-11 17:56:00,
2013-01-11 10:01:00,38.3,22.7,30.19,WNW,300,7.0,11.0,53,0.00,,---,0.00,VWS V14.01,2013-01-11 18:01:00,
2013-01-11 10:06:00,38.4,22.8,30.19,WNW,293,10.0,14.0,53,0.00,,---,0.00,VWS V14.01,2013-01-11 18:06:00,
2013-01-11 10:11:00,38.5,22.9,30.19,WNW,299,8.0,14.0,53,0.00,,---,0.00,VWS V14.01,2013-01-11 18:11:00,
2013-01-11 10:16:00,38.6,23.0,30.19,West,270,8.0,14.0,53,0.00,,---,0.00,VWS V14.01,2013-01-11 18:16:00,
2013-01-11 10:21:00,38.6,22.5,30.19,WNW,284,9.0,18.0,52,0.00,,---,0.00,VWS V14.01,2013-01-11 18:21:00,
2013-01-11 10:26:00,38.6,23.0,30.19,WNW,286,5.0,18.0,53,0.00,,---,0.00,VWS V14.01,2013-01-11 18:26:00,
2013-01-11 10:31:00,38.7,22.6,30.19,West,281,8.0,18.0,52,0.00,,---,0.00,VWS V14.01,2013-01-11 18:31:00,
2013-01-11 10:36:00,38.7,22.6,30.19,WNW,290,6.0,18.0,52,0.00,,---,0.00,VWS V14.01,2013-01-11 18:36:00,
2013-01-11 10:41:00,39.1,23.0,30.18,WNW,299,14.0,18.0,52,0.00,,---,0.00,VWS V14.01,2013-01-11 18:41:00,
2013-01-11 10:46:00,39.1,22.0,30.18,WNW,290,9.0,18.0,50,0.00,,---,0.00,VWS V14.01,2013-01-11 18:46:00,
2013-01-11 10:51:00,39.0,22.4,30.18,SW,232,11.0,18.0,51,0.00,,---,0.00,VWS V14.01,2013-01-11 18:51:00,
2013-01-11 10:56:00,39.2,23.1,30.18,West,280,11.0,18.0,52,0.00,,---,0.00,VWS V14.01,2013-01-11 18:56:00,
2013-01-11 11:01:00,38.9,22.3,30.18,WNW,289,11.0,16.0,51,0.00,,---,0.00,VWS V14.01,2013-01-11 19:01:00,
2013-01-11 11:06:00,39.2,22.6,30.17,WNW,285,9.0,17.0,51,0.00,,---,0.00,VWS V14.01,2013-01-11 19:06:00,
2013-01-11 11:11:00,39.1,23.0,30.17,West,276,12.0,17.0,52,0.00,,---,0.00,VWS V14.01,2013-01-11 19:11:00,
2013-01-11 11:16:00,39.6,23.4,30.17,NW,305,7.0,17.0,52,0.00,,---,0.00,VWS V14.01,2013-01-11 19:16:00,
2013-01-11 11:21:00,39.6,23.0,30.17,WSW,253,12.0,17.0,51,0.00,,---,0.00,VWS V14.01,2013-01-11 19:21:00,
2013-01-11 11:26:00,39.4,22.8,30.17,WNW,287,10.0,17.0,51,0.00,,---,0.00,VWS V14.01,2013-01-11 19:26:00,
2013-01-11 11:31:00,39.4,23.2,30.17,WNW,294,12.0,18.0,52,0.00,,---,0.00,VWS V14.01,2013-01-11 19:31:00,
2013-01-11 11:36:00,39.1,23.0,30.17,West,273,10.0,18.0,52,0.00,,---,0.00,VWS V14.01,2013-01-11 19:36:00,
2013-01-11 11:41:00,39.3,24.1,30.16,WNW,282,12.0,18.0,54,0.00,,---,0.00,VWS V14.01,2013-01-11 19:41:00,
2013-01-11 11:46:00,39.1,23.4,30.16,West,277,12.0,20.0,53,0.00,,---,0.00,VWS V14.01,2013-01-11 19:46:00,
2013-01-11 11:51:00,39.1,23.9,30.15,WNW,291,10.0,20.0,54,0.00,,---,0.00,VWS V14.01,2013-01-11 19:51:00,
2013-01-11 11:56:00,39.1,23.4,30.15,WNW,290,13.0,22.0,53,0.00,,---,0.00,VWS V14.01,2013-01-11 19:56:00,
2013-01-11 12:01:00,39.1,23.4,30.15,WNW,284,11.0,16.0,53,0.00,,---,0.00,VWS V14.01,2013-01-11 20:01:00,
2013-01-11 12:06:00,39.2,23.5,30.15,NW,304,12.0,16.0,53,0.00,,---,0.00,VWS V14.01,2013-01-11 20:06:00,
2013-01-11 12:11:00,39.2,24.0,30.15,West,259,9.0,16.0,54,0.00,,---,0.00,VWS V14.01,2013-01-11 20:11:00,
2013-01-11 12:16:00,39.3,23.6,30.14,West,273,14.0,19.0,53,0.00,,---,0.00,VWS V14.01,2013-01-11 20:16:00,
2013-01-11 12:21:00,39.0,23.3,30.14,WNW,293,11.0,19.0,53,0.00,,---,0.00,VWS V14.01,2013-01-11 20:21:00,
2013-01-11 12:26:00,38.8,23.6,30.14,WNW,287,8.0,19.0,54,0.00,,---,0.00,VWS V14.01,2013-01-11 20:26:00,
2013-01-11 12:31:00,38.7,23.5,30.14,West,260,6.0,19.0,54,0.00,,---,0.00,VWS V14.01,2013-01-11 20:31:00,
2013-01-11 12:36:00,39.1,24.3,30.13,WNW,284,17.0,20.0,55,0.00,,---,0.00,VWS V14.01,2013-01-11 20:36:00,
2013-01-11 12:41:00,39.2,23.5,30.13,NW,305,4.0,20.0,53,0.00,,---,0.00,VWS V14.01,2013-01-11 20:41:00,
2013-01-11 12:46:00,38.9,23.7,30.13,WNW,302,9.0,20.0,54,0.00,,---,0.00,VWS V14.01,2013-01-11 20:46:00,
2013-01-11 12:51:00,38.9,23.7,30.13,NW,316,10.0,20.0,54,0.00,,---,0.00,VWS V14.01,2013-01-11 20:51:00,
2013-01-11 12:56:00,38.7,23.5,30.13,WNW,293,10.0,20.0,54,0.00,,---,0.00,VWS V14.01,2013-01-11 20:56:00,
2013-01-11 13:01:00,39.0,23.8,30.13,NW,304,15.0,18.0,54,0.00,,---,0.00,VWS V14.01,2013-01-11 21:01:00,
2013-01-11 13:06:00,39.3,24.1,30.13,West,274,10.0,19.0,54,0.00,,---,0.00,VWS V14.01,2013-01-11 21:06:00,
2013-01-11 13:11:00,38.9,24.1,30.12,WNW,284,11.0,19.0,55,0.00,,---,0.00,VWS V14.01,2013-01-11 21:11:00,
2013-01-11 13:16:00,39.0,23.8,30.12,WNW,284,11.0,20.0,54,0.00,,---,0.00,VWS V14.01,2013-01-11 21:16:00,
2013-01-11 13:21:00,38.9,24.6,30.12,WNW,296,15.0,20.0,56,0.00,,---,0.00,VWS V14.01,2013-01-11 21:21:00,
2013-01-11 13:26:00,38.7,23.9,30.12,WNW,286,17.0,20.0,55,0.00,,---,0.00,VWS V14.01,2013-01-11 21:26:00,
2013-01-11 13:31:00,38.8,24.9,30.12,West,270,8.0,20.0,57,0.00,,---,0.00,VWS V14.01,2013-01-11 21:31:00,
2013-01-11 13:36:00,38.9,25.0,30.12,West,261,14.0,20.0,57,0.00,,---,0.00,VWS V14.01,2013-01-11 21:36:00,
2013-01-11 13:41:00,39.1,24.3,30.12,NW,305,10.0,22.0,55,0.00,,---,0.00,VWS V14.01,2013-01-11 21:41:00,
2013-01-11 13:46:00,38.6,24.3,30.13,WNW,283,15.0,22.0,56,0.00,,---,0.00,VWS V14.01,2013-01-11 21:46:00,
2013-01-11 13:51:00,38.0,24.5,30.13,West,280,6.0,22.0,58,0.00,,---,0.00,VWS V14.01,2013-01-11 21:51:00,
2013-01-11 13:56:00,37.7,24.3,30.12,WNW,290,23.0,27.0,58,0.00,,---,0.00,VWS V14.01,2013-01-11 21:56:00,
2013-01-11 14:01:00,37.9,24.0,30.12,WNW,298,16.0,24.0,57,0.00,,---,0.00,VWS V14.01,2013-01-11 22:01:00,
2013-01-11 14:06:00,38.2,23.5,30.12,WNW,287,13.0,27.0,55,0.00,,---,0.00,VWS V14.01,2013-01-11 22:06:00,
2013-01-11 14:11:00,38.4,24.5,30.12,WNW,290,13.0,27.0,57,0.00,,---,0.00,VWS V14.01,2013-01-11 22:11:00,
2013-01-11 14:16:00,38.6,23.8,30.12,NW,307,10.0,29.0,55,0.00,,---,0.00,VWS V14.01,2013-01-11 22:16:00,
2013-01-11 14:21:00,38.7,23.5,30.12,WNW,290,15.0,29.0,54,0.00,,---,0.00,VWS V14.01,2013-01-11 22:21:00,
2013-01-11 14:26:00,39.0,23.8,30.12,West,264,14.0,29.0,54,0.00,,---,0.00,VWS V14.01,2013-01-11 22:26:00,
2013-01-11 14:32:00,39.0,23.3,30.12,WNW,287,13.0,29.0,53,0.00,,---,0.00,VWS V14.01,2013-01-11 22:32:00,
2013-01-11 14:37:00,38.9,23.2,30.12,West,276,19.0,29.0,53,0.00,,---,0.00,VWS V14.01,2013-01-11 22:37:00,
2013-01-11 14:42:00,38.6,23.4,30.12,West,270,15.0,29.0,54,0.00,,---,0.00,VWS V14.01,2013-01-11 22:42:00,
2013-01-11 14:47:00,38.4,23.2,30.11,WNW,284,16.0,29.0,54,0.00,,---,0.00,VWS V14.01,2013-01-11 22:47:00,
2013-01-11 14:52:00,38.2,23.0,30.12,WNW,287,10.0,29.0,54,0.00,,---,0.00,VWS V14.01,2013-01-11 22:52:00,
2013-01-11 14:57:00,38.4,23.7,30.12,NW,312,6.0,29.0,55,0.00,,---,0.00,VWS V14.01,2013-01-11 22:57:00,
2013-01-11 15:02:00,38.8,24.0,30.11,WNW,287,10.0,14.0,55,0.00,,---,0.00,VWS V14.01,2013-01-11 23:02:00,
2013-01-11 15:07:00,38.8,22.7,30.11,West,260,8.0,19.0,52,0.00,,---,0.00,VWS V14.01,2013-01-11 23:07:00,
2013-01-11 15:12:00,38.8,23.1,30.11,SW,229,13.0,19.0,53,0.00,,---,0.00,VWS V14.01,2013-01-11 23:12:00,
2013-01-11 15:17:00,38.7,23.5,30.11,WNW,294,15.0,19.0,54,0.00,,---,0.00,VWS V14.01,2013-01-11 23:17:00,
2013-01-11 15:22:00,38.8,23.1,30.11,West,278,7.0,19.0,53,0.00,,---,0.00,VWS V14.01,2013-01-11 23:22:00,
2013-01-11 15:27:00,38.7,23.1,30.11,NW,307,10.0,19.0,53,0.00,,---,0.00,VWS V14.01,2013-01-11 23:27:00,
2013-01-11 15:32:00,38.6,23.4,30.11,WSW,240,7.0,19.0,54,0.00,,---,0.00,VWS V14.01,2013-01-11 23:32:00,
2013-01-11 15:37:00,38.4,23.2,30.11,WNW,283,10.0,21.0,54,0.00,,---,0.00,VWS V14.01,2013-01-11 23:37:00,
2013-01-11 15:42:00,38.1,23.4,30.11,West,269,3.0,21.0,55,0.00,,---,0.00,VWS V14.01,2013-01-11 23:42:00,
2013-01-11 15:47:00,38.2,23.5,30.11,WNW,290,5.0,21.0,55,0.00,,---,0.00,VWS V14.01,2013-01-11 23:47:00,
2013-01-11 15:52:00,38.4,22.8,30.10,West,281,6.0,21.0,53,0.00,,---,0.00,VWS V14.01,2013-01-11 23:52:00,
2013-01-11 15:57:00,38.2,22.6,30.10,WNW,293,15.0,21.0,53,0.00,,---,0.00,VWS V14.01,2013-01-11 23:57:00,
2013-01-11 16:02:00,37.7,22.1,30.10,WNW,299,9.0,18.0,53,0.00,,---,0.00,VWS V14.01,2013-01-12 00:02:00,
2013-01-11 16:07:00,37.5,22.4,30.10,West,263,8.0,18.0,54,0.00,,---,0.00,VWS V14.01,2013-01-12 00:07:00,
2013-01-11 16:12:00,37.3,22.6,30.10,WNW,297,14.0,20.0,55,0.00,,---,0.00,VWS V14.01,2013-01-12 00:12:00,
2013-01-11 16:17:00,37.3,23.1,30.10,West,264,2.0,20.0,56,0.00,,---,0.00,VWS V14.01,2013-01-12 00:17:00,
2013-01-11 16:22:00,37.1,23.3,30.10,West,262,11.0,20.0,57,0.00,,---,0.00,VWS V14.01,2013-01-12 00:22:00,
2013-01-11 16:27:00,37.1,23.3,30.10,West,278,8.0,20.0,57,0.00,,---,0.00,VWS V14.01,2013-01-12 00:27:00,
2013-01-11 16:32:00,37.0,23.2,30.10,WNW,299,18.0,21.0,57,0.00,,---,0.00,VWS V14.01,2013-01-12 00:32:00,
2013-01-11 16:37:00,36.8,23.4,30.10,WNW,291,14.0,21.0,58,0.00,,---,0.00,VWS V14.01,2013-01-12 00:37:00,
2013-01-11 16:42:00,36.5,23.1,30.09,West,267,10.0,21.0,58,0.00,,---,0.00,VWS V14.01,2013-01-12 00:42:00,
2013-01-11 16:47:00,36.2,23.3,30.09,WNW,299,14.0,21.0,59,0.00,,---,0.00,VWS V14.01,2013-01-12 00:47:00,
2013-01-11 16:52:00,36.1,23.2,30.09,West,276,13.0,21.0,59,0.00,,---,0.00,VWS V14.01,2013-01-12 00:52:00,
2013-01-11 16:57:00,36.0,23.1,30.09,WNW,293,10.0,21.0,59,0.00,,---,0.00,VWS V14.01,2013-01-12 00:57:00,
2013-01-11 17:02:00,35.9,23.4,30.09,West,281,6.0,13.0,60,0.00,,---,0.00,VWS V14.01,2013-01-12 01:02:00,
2013-01-11 17:07:00,35.8,23.3,30.09,WNW,288,11.0,15.0,60,0.00,,---,0.00,VWS V14.01,2013-01-12 01:07:00,
2013-01-11 17:12:00,35.6,23.5,30.09,WNW,290,7.0,17.0,61,0.00,,---,0.00,VWS V14.01,2013-01-12 01:12:00,
2013-01-11 17:17:00,35.5,23.4,30.09,WSW,255,11.0,17.0,61,0.00,,---,0.00,VWS V14.01,2013-01-12 01:17:00,
2013-01-11 17:22:00,35.4,23.3,30.09,WSW,238,10.0,18.0,61,0.00,,---,0.00,VWS V14.01,2013-01-12 01:22:00,
2013-01-11 17:27:00,35.4,23.7,30.09,West,281,13.0,18.0,62,0.00,,---,0.00,VWS V14.01,2013-01-12 01:27:00,
2013-01-11 17:32:00,35.3,23.6,30.09,West,277,7.0,18.0,62,0.00,,---,0.00,VWS V14.01,2013-01-12 01:32:00,
2013-01-11 17:37:00,35.1,23.4,30.09,WNW,290,13.0,19.0,62,0.00,,---,0.00,VWS V14.01,2013-01-12 01:37:00,
2013-01-11 17:42:00,35.3,23.6,30.09,West,281,6.0,19.0,62,0.00,,---,0.00,VWS V14.01,2013-01-12 01:42:00,
2013-01-11 17:47:00,35.5,23.4,30.09,West,276,11.0,20.0,61,0.00,,---,0.00,VWS V14.01,2013-01-12 01:47:00,
2013-01-11 17:52:00,35.7,23.2,30.09,WSW,243,6.0,20.0,60,0.00,,---,0.00,VWS V14.01,2013-01-12 01:52:00,
2013-01-11 17:57:00,35.6,23.1,30.09,West,271,8.0,20.0,60,0.00,,---,0.00,VWS V14.01,2013-01-12 01:57:00,
2013-01-11 18:03:00,35.6,23.1,30.09,SSW,198,3.0,12.0,60,0.00,,---,0.00,VWS V14.01,2013-01-12 02:03:00,
2013-01-11 18:08:00,35.3,23.2,30.09,West,265,10.0,14.0,61,0.00,,---,0.00,VWS V14.01,2013-01-12 02:08:00,
2013-01-11 18:13:00,34.9,23.2,30.09,West,260,4.0,14.0,62,0.00,,---,0.00,VWS V14.01,2013-01-12 02:13:00,
2013-01-11 18:18:00,34.5,23.2,30.09,West,274,4.0,14.0,63,0.00,,---,0.00,VWS V14.01,2013-01-12 02:18:00,
2013-01-11 18:23:00,34.2,22.9,30.09,SSE,160,0.0,14.0,63,0.00,,---,0.00,VWS V14.01,2013-01-12 02:23:00,
2013-01-11 18:28:00,34.3,23.0,30.09,WNW,297,7.0,14.0,63,0.00,,---,0.00,VWS V14.01,2013-01-12 02:28:00,
2013-01-11 18:33:00,34.7,23.0,30.08,WNW,294,18.0,18.0,62,0.00,,---,0.00,VWS V14.01,2013-01-12 02:33:00,
2013-01-11 18:38:00,35.1,23.0,30.08,West,281,17.0,22.0,61,0.00,,---,0.00,VWS V14.01,2013-01-12 02:38:00,
2013-01-11 18:43:00,35.2,23.1,30.08,NW,308,11.0,23.0,61,0.00,,---,0.00,VWS V14.01,2013-01-12 02:43:00,
2013-01-11 18:48:00,35.0,23.3,30.09,WNW,286,13.0,23.0,62,0.00,,---,0.00,VWS V14.01,2013-01-12 02:48:00,
2013-01-11 18:53:00,35.1,23.0,30.09,WNW,284,20.0,23.0,61,0.00,,---,0.00,VWS V14.01,2013-01-12 02:53:00,
2013-01-11 18:58:00,34.9,23.2,30.09,WNW,290,9.0,23.0,62,0.00,,---,0.00,VWS V14.01,2013-01-12 02:58:00,
2013-01-11 19:03:00,34.7,23.0,30.09,West,272,12.0,19.0,62,0.00,,---,0.00,VWS V14.01,2013-01-12 03:03:00,
2013-01-11 19:08:00,34.5,23.2,30.10,West,277,7.0,19.0,63,0.00,,---,0.00,VWS V14.01,2013-01-12 03:08:00,
2013-01-11 19:13:00,34.4,23.5,30.09,West,266,13.0,19.0,64,0.00,,---,0.00,VWS V14.01,2013-01-12 03:13:00,
2013-01-11 19:18:00,34.3,23.4,30.10,West,276,8.0,19.0,64,0.00,,---,0.00,VWS V14.01,2013-01-12 03:18:00,
2013-01-11 19:23:00,34.5,23.2,30.09,West,277,11.0,19.0,63,0.00,,---,0.00,VWS V14.01,2013-01-12 03:23:00,
2013-01-11 19:28:00,34.9,23.2,30.10,West,274,8.0,19.0,62,0.00,,---,0.00,VWS V14.01,2013-01-12 03:28:00,
2013-01-11 19:33:00,35.1,23.0,30.10,West,274,5.0,19.0,61,0.00,,---,0.00,VWS V14.01,2013-01-12 03:33:00,
2013-01-11 19:38:00,35.2,22.7,30.10,West,271,8.0,19.0,60,0.00,,---,0.00,VWS V14.01,2013-01-12 03:38:00,
2013-01-11 19:43:00,35.3,22.4,30.10,WSW,255,4.0,19.0,59,0.00,,---,0.00,VWS V14.01,2013-01-12 03:43:00,
2013-01-11 19:48:00,35.1,22.6,30.10,WSW,257,3.0,19.0,60,0.00,,---,0.00,VWS V14.01,2013-01-12 03:48:00,
2013-01-11 19:53:00,34.9,22.4,30.10,WSW,244,4.0,19.0,60,0.00,,---,0.00,VWS V14.01,2013-01-12 03:53:00,
2013-01-11 19:58:00,34.9,22.0,30.10,West,262,6.0,19.0,59,0.00,,---,0.00,VWS V14.01,2013-01-12 03:58:00,
2013-01-11 20:03:00,34.9,21.6,30.10,WNW,286,7.0,10.0,58,0.00,,---,0.00,VWS V14.01,2013-01-12 04:03:00,
2013-01-11 20:08:00,34.9,21.2,30.10,SW,236,2.0,10.0,57,0.00,,---,0.00,VWS V14.01,2013-01-12 04:08:00,
2013-01-11 20:13:00,34.7,21.0,30.10,West,272,1.0,10.0,57,0.00,,---,0.00,VWS V14.01,2013-01-12 04:13:00,
2013-01-11 20:18:00,34.7,21.0,30.10,SW,221,0.0,10.0,57,0.00,,---,0.00,VWS V14.01,2013-01-12 04:18:00,
2013-01-11 20:23:00,34.7,20.6,30.10,West,262,4.0,10.0,56,0.00,,---,0.00,VWS V14.01,2013-01-12 04:23:00,
2013-01-11 20:28:00,34.6,20.5,30.10,West,277,3.0,10.0,56,0.00,,---,0.00,VWS V14.01,2013-01-12 04:28:00,
2013-01-11 20:33:00,34.5,20.0,30.10,West,269,6.0,10.0,55,0.00,,---,0.00,VWS V14.01,2013-01-12 04:33:00,
2013-01-11 20:38:00,34.5,20.0,30.10,WSW,238,3.0,10.0,55,0.00,,---,0.00,VWS V14.01,2013-01-12 04:38:00,
2013-01-11 20:43:00,34.5,19.6,30.10,WSW,255,5.0,10.0,54,0.00,,---,0.00,VWS V14.01,2013-01-12 04:43:00,
2013-01-11 20:48:00,34.4,19.5,30.10,SW,229,2.0,10.0,54,0.00,,---,0.00,VWS V14.01,2013-01-12 04:48:00,
2013-01-11 20:53:00,34.3,19.0,30.10,West,277,0.0,10.0,53,0.00,,---,0.00,VWS V14.01,2013-01-12 04:53:00,
2013-01-11 20:58:00,34.1,18.8,30.10,SW,234,2.0,10.0,53,0.00,,---,0.00,VWS V14.01,2013-01-12 04:58:00,
2013-01-11 21:02:00,34.1,18.8,30.10,SW,221,0.0,2.0,53,0.00,,---,0.00,VWS V14.01,2013-01-12 05:02:00,
2013-01-11 21:03:00,34.1,18.8,30.10,WSW,238,0.0,3.0,53,0.00,,---,0.00,VWS V14.01,2013-01-12 05:03:00,
2013-01-11 21:05:00,34.0,18.7,30.10,WSW,240,0.0,3.0,53,0.00,,---,0.00,VWS V14.01,2013-01-12 05:05:00,
2013-01-11 21:10:00,34.0,19.1,30.10,West,277,0.0,4.0,54,0.00,,---,0.00,VWS V14.01,2013-01-12 05:10:00,
2013-01-11 21:13:00,33.9,19.0,30.10,West,273,4.0,5.0,54,0.00,,---,0.00,VWS V14.01,2013-01-12 05:13:00,
2013-01-11 21:18:00,33.9,19.0,30.10,WSW,255,3.0,6.0,54,0.00,,---,0.00,VWS V14.01,2013-01-12 05:18:00,
2013-01-11 21:23:00,33.9,18.6,30.10,West,273,2.0,6.0,53,0.00,,---,0.00,VWS V14.01,2013-01-12 05:23:00,
2013-01-11 21:28:00,34.0,18.7,30.10,WSW,245,0.0,6.0,53,0.00,,---,0.00,VWS V14.01,2013-01-12 05:28:00,
2013-01-11 21:33:00,33.9,18.6,30.10,WSW,248,2.0,7.0,53,0.00,,---,0.00,VWS V14.01,2013-01-12 05:33:00,
2013-01-11 21:38:00,34.2,19.3,30.10,West,262,5.0,11.0,54,0.00,,---,0.00,VWS V14.01,2013-01-12 05:38:00,
2013-01-11 21:43:00,34.3,19.4,30.10,West,270,11.0,11.0,54,0.00,,---,0.00,VWS V14.01,2013-01-12 05:43:00,
2013-01-11 21:48:00,34.5,19.1,30.10,WNW,284,3.0,11.0,53,0.00,,---,0.00,VWS V14.01,2013-01-12 05:48:00,
2013-01-11 21:53:00,34.5,19.1,30.10,West,276,5.0,11.0,53,0.00,,---,0.00,VWS V14.01,2013-01-12 05:53:00,
2013-01-11 21:58:00,34.6,19.2,30.10,NW,311,5.0,14.0,53,0.00,,---,0.00,VWS V14.01,2013-01-12 05:58:00,
2013-01-11 22:03:00,34.4,19.0,30.10,WNW,290,7.0,11.0,53,0.00,,---,0.00,VWS V14.01,2013-01-12 06:03:00,
2013-01-11 22:08:00,34.6,19.2,30.10,WNW,287,3.0,11.0,53,0.00,,---,0.00,VWS V14.01,2013-01-12 06:08:00,
2013-01-11 22:13:00,34.9,19.5,30.10,West,277,5.0,11.0,53,0.00,,---,0.00,VWS V14.01,2013-01-12 06:13:00,
2013-01-11 22:18:00,35.1,19.3,30.10,WNW,290,4.0,12.0,52,0.00,,---,0.00,VWS V14.01,2013-01-12 06:18:00,
2013-01-11 22:23:00,35.2,18.9,30.10,West,280,11.0,14.0,51,0.00,,---,0.00,VWS V14.01,2013-01-12 06:23:00,
2013-01-11 22:28:00,35.2,18.4,30.10,WNW,283,4.0,14.0,50,0.00,,---,0.00,VWS V14.01,2013-01-12 06:28:00,
2013-01-11 22:33:00,35.1,18.4,30.09,WNW,295,7.0,14.0,50,0.00,,---,0.00,VWS V14.01,2013-01-12 06:33:00,
2013-01-11 22:38:00,35.5,18.2,30.09,WNW,283,9.0,14.0,49,0.00,,---,0.00,VWS V14.01,2013-01-12 06:38:00,
2013-01-11 22:43:00,35.5,18.2,30.10,West,269,7.0,14.0,49,0.00,,---,0.00,VWS V14.01,2013-01-12 06:43:00,
2013-01-11 22:48:00,35.3,18.5,30.10,WNW,292,5.0,14.0,50,0.00,,---,0.00,VWS V14.01,2013-01-12 06:48:00,
2013-01-11 22:53:00,35.1,18.4,30.10,WSW,243,4.0,14.0,50,0.00,,---,0.00,VWS V14.01,2013-01-12 06:53:00,
2013-01-11 22:58:00,35.4,18.6,30.10,WNW,293,3.0,14.0,50,0.00,,---,0.00,VWS V14.01,2013-01-12 06:58:00,
2013-01-11 23:03:00,35.5,18.2,30.10,West,263,6.0,14.0,49,0.00,,---,0.00,VWS V14.01,2013-01-12 07:03:00,
2013-01-11 23:08:00,35.6,18.3,30.10,West,274,7.0,14.0,49,0.00,,---,0.00,VWS V14.01,2013-01-12 07:08:00,
2013-01-11 23:13:00,35.3,18.5,30.10,West,276,5.0,14.0,50,0.00,,---,0.00,VWS V14.01,2013-01-12 07:13:00,
2013-01-11 23:18:00,35.1,18.8,30.10,West,281,5.0,14.0,51,0.00,,---,0.00,VWS V14.01,2013-01-12 07:18:00,
2013-01-11 23:23:00,34.7,18.4,30.10,WNW,287,4.0,14.0,51,0.00,,---,0.00,VWS V14.01,2013-01-12 07:23:00,
2013-01-11 23:28:00,34.2,18.4,30.10,WSW,253,5.0,14.0,52,0.00,,---,0.00,VWS V14.01,2013-01-12 07:28:00,
2013-01-11 23:33:00,33.6,19.2,30.10,West,260,6.0,14.0,55,0.00,,---,0.00,VWS V14.01,2013-01-12 07:33:00,
2013-01-11 23:38:00,33.0,19.0,30.10,WNW,300,4.0,14.0,56,0.00,,---,0.00,VWS V14.01,2013-01-12 07:38:00,
2013-01-11 23:43:00,32.5,19.0,30.10,West,262,5.0,14.0,57,0.00,,---,0.00,VWS V14.01,2013-01-12 07:43:00,
2013-01-11 23:48:00,32.3,19.2,30.09,West,270,5.0,14.0,58,0.00,,---,0.00,VWS V14.01,2013-01-12 07:48:00,
2013-01-11 23:53:00,32.4,18.9,30.09,West,271,3.0,14.0,57,0.00,,---,0.00,VWS V14.01,2013-01-12 07:53:00,
2013-01-11 23:58:00,32.8,18.8,30.09,West,277,5.0,14.0,56,0.00,,---,0.00,VWS V14.01,2013-01-12 07:58:00,